TimeEST,TemperatureF,Dew PointF,Humidity,Sea Level PressureIn,VisibilityMPH,Wind Direction,Wind SpeedMPH,Gust SpeedMPH,PrecipitationIn,Events,Conditions,WindDirDegrees,DateUTC
12:53 AM,53.1,44.1,71,29.86,10.0,SSW,5.8,-,0.00,Rain,Light Rain,200,2013-02-08 05:53:00
1:53 AM,51.1,46.9,86,29.86,5.0,SSW,5.8,-,0.02,Rain,Light Rain,210,2013-02-08 06:53:00
2:46 AM,50.0,48.2,94,29.86,4.0,WSW,5.8,-,0.04,Rain,Light Rain,240,2013-02-08 07:46:00
2:53 AM,50.0,48.0,93,29.86,4.0,SW,5.8,-,0.05,Rain,Light Rain,230,2013-02-08 07:53:00
3:02 AM,50.0,48.2,94,29.86,3.0,WSW,5.8,-,0.00,Rain,Light Rain,250,2013-02-08 08:02:00
3:13 AM,50.0,48.2,94,29.86,4.0,WSW,9.2,-,0.00,,Overcast,250,2013-02-08 08:13:00
3:34 AM,48.2,44.6,87,29.88,10.0,NW,17.3,24.2,0.01,Rain,Light Rain,310,2013-02-08 08:34:00
3:43 AM,46.4,42.8,87,29.88,8.0,NW,18.4,-,0.01,Rain,Light Rain,310,2013-02-08 08:43:00
3:53 AM,46.0,43.0,89,29.89,5.0,WNW,13.8,25.3,0.01,Rain,Light Rain,300,2013-02-08 08:53:00
4:09 AM,46.4,42.8,87,29.90,6.0,NW,15.0,-,0.02,Rain,Light Rain,320,2013-02-08 09:09:00
4:53 AM,43.0,39.9,89,29.93,10.0,NW,19.6,26.5,0.04,Rain,Light Rain,310,2013-02-08 09:53:00
5:10 AM,42.8,39.2,87,29.94,10.0,NW,13.8,24.2,0.00,,Overcast,310,2013-02-08 10:10:00
5:53 AM,41.0,37.0,86,29.96,10.0,WNW,11.5,-,0.00,,Overcast,300,2013-02-08 10:53:00
6:17 AM,39.2,35.6,87,29.98,10.0,WNW,13.8,-,N/A,,Overcast,300,2013-02-08 11:17:00
6:53 AM,39.2,35.6,87,30.00,10.0,NW,15.0,-,N/A,,Overcast,320,2013-02-08 11:53:00
7:53 AM,39.0,34.0,82,30.04,10.0,NW,12.7,-,0.01,,Overcast,320,2013-02-08 12:53:00
8:53 AM,37.9,32.0,79,30.09,10.0,NW,17.3,20.7,N/A,,Overcast,310,2013-02-08 13:53:00
9:53 AM,37.9,30.9,76,30.12,10.0,NNW,11.5,18.4,N/A,,Overcast,330,2013-02-08 14:53:00
10:53 AM,37.0,30.9,79,30.16,10.0,NNW,8.1,-,N/A,,Overcast,330,2013-02-08 15:53:00
11:53 AM,37.9,30.0,73,30.18,10.0,NW,13.8,-,N/A,,Overcast,320,2013-02-08 16:53:00
12:53 PM,37.9,30.0,73,30.19,10.0,NW,10.4,-,N/A,,Overcast,310,2013-02-08 17:53:00
1:53 PM,37.9,28.0,68,30.20,10.0,NNW,10.4,-,N/A,,Overcast,340,2013-02-08 18:53:00
2:53 PM,37.0,28.0,70,30.21,10.0,NNW,9.2,-,N/A,,Overcast,340,2013-02-08 19:53:00
3:53 PM,37.0,28.0,70,30.24,10.0,NNW,8.1,-,N/A,,Overcast,330,2013-02-08 20:53:00
4:53 PM,37.0,27.0,67,30.26,10.0,NNW,9.2,-,N/A,,Overcast,330,2013-02-08 21:53:00
5:53 PM,36.0,27.0,70,30.29,10.0,NW,6.9,-,N/A,,Overcast,320,2013-02-08 22:53:00
6:53 PM,36.0,26.1,67,30.32,10.0,NNW,6.9,-,N/A,,Overcast,330,2013-02-08 23:53:00
7:53 PM,36.0,26.1,67,30.34,10.0,NW,8.1,-,N/A,,Overcast,310,2013-02-09 00:53:00
8:26 PM,35.6,26.6,70,30.34,10.0,WNW,5.8,-,N/A,,Overcast,300,2013-02-09 01:26:00
8:53 PM,36.0,26.1,67,30.35,10.0,NW,6.9,-,N/A,,Overcast,310,2013-02-09 01:53:00
9:53 PM,35.1,26.1,70,30.35,10.0,NNW,3.5,-,N/A,,Overcast,330,2013-02-09 02:53:00
10:53 PM,35.1,26.1,70,30.36,10.0,NNW,3.5,-,N/A,,Overcast,330,2013-02-09 03:53:00
11:53 PM,34.0,26.1,73,30.37,10.0,Calm,Calm,-,N/A,,Overcast,0,2013-02-09 04:53:00